WET,Max TemperatureF,Mean TemperatureF,Min TemperatureF,Max Dew PointF,MeanDew PointF,Min DewpointF,Max Humidity, Mean Humidity, Min Humidity, Max Sea Level PressureIn, Mean Sea Level PressureIn, Min Sea Level PressureIn, Max VisibilityMiles, Mean VisibilityMiles, Min VisibilityMiles, Max Wind SpeedMPH, Mean Wind SpeedMPH, Max Gust SpeedMPH,PrecipitationIn, CloudCover, Events, WindDirDegrees
2012-11-1,77,68,60,66,60,55,94,80,60,30.06,29.90,29.70,6,5,1,34,13,48,0.28,5,Rain,276
2012-11-2,77,68,58,68,60,54,94,79,71,30.12,30.06,29.99,6,5,2,12,4,100,0.16,6,Rain,180
2012-11-3,84,74,63,68,64,59,88,73,51,30.09,30.05,29.99,6,6,5,22,7,92,0.00,4,,265
2012-11-4,81,73,65,67,62,54,85,70,55,30.12,30.04,29.97,6,6,5,12,7,102,0.00,5,,287
2012-11-5,75,70,65,68,64,59,94,81,64,30.15,30.04,29.83,6,6,1,13,6,,0.08,5,Rain-Thunderstorm,46
2012-11-6,80,72,64,64,60,55,94,70,47,30.06,30.02,29.94,6,6,2,16,9,,0.02,6,Rain-Thunderstorm,228
2012-11-7,77,65,53,64,59,54,100,77,61,30.06,30.02,29.91,6,5,0,14,6,,0.00,6,Fog-Rain,57
2012-11-8,78,66,54,64,58,51,94,76,54,30.04,29.99,29.91,6,5,0,12,6,83,0.00,5,Fog,336
2012-11-9,65,61,57,59,55,52,94,83,68,30.06,30.02,29.96,6,4,0,9,6,,0.01,7,Fog-Rain,282
2012-11-10,67,60,53,54,51,48,94,76,50,30.10,30.02,29.97,6,5,1,16,7,,0.12,6,Rain,271
2012-11-11,58,52,46,52,46,39,94,77,61,30.06,29.93,29.86,6,5,2,22,14,36,1.18,5,Rain,268
2012-11-12,64,54,43,48,43,37,82,71,59,30.16,30.04,29.95,6,6,6,15,10,,0.01,4,,263
2012-11-13,68,60,51,50,47,43,88,69,45,30.15,30.09,30.04,6,6,6,10,7,,0.00,4,,264
2012-11-14,67,54,42,57,43,37,87,73,51,30.09,29.99,29.90,6,6,6,9,6,,0.00,3,,161
2012-11-15,71,57,43,50,44,38,88,69,42,30.05,29.99,29.95,6,6,6,8,4,77,0.00,2,,184
2012-11-16,69,56,42,52,47,41,93,75,42,30.09,29.98,29.88,6,6,6,7,5,,0.00,,,158
2012-11-17,68,60,53,57,51,46,88,76,63,29.95,29.86,29.77,6,5,3,15,7,,0.24,5,Rain,237
2012-11-18,61,56,51,55,49,46,94,79,64,30.04,29.88,29.80,5,4,3,26,14,,0.31,5,Rain,256
2012-11-19,62,56,50,52,48,43,94,75,60,30.13,30.08,30.04,6,6,5,17,12,,0.00,4,,236
2012-11-20,67,54,41,50,44,37,94,71,35,30.16,30.09,30.01,6,6,6,9,4,32,0.00,1,,220
2012-11-21,69,56,44,61,48,39,100,75,37,30.16,30.11,30.04,6,6,5,9,4,,0.00,3,,169
2012-11-22,71,58,46,54,48,43,94,76,47,30.19,30.14,30.09,6,6,3,9,6,101,0.00,2,,186
2012-11-23,74,59,44,52,46,39,82,65,32,30.20,30.12,30.04,6,5,0,17,5,99,0.00,3,,150
2012-11-24,76,62,49,54,46,41,76,57,20,30.15,30.12,30.05,6,6,1,12,6,36,0.00,6,,177
2012-11-25,74,61,48,50,46,41,82,60,27,30.12,30.05,29.95,7,6,4,9,6,,0.00,5,,142
2012-11-26,72,59,46,55,47,41,88,68,36,30.01,29.97,29.88,6,6,5,14,6,32,0.00,4,,228
2012-11-27,57,52,46,54,44,37,93,76,57,30.01,29.97,29.92,6,5,1,21,11,,0.35,6,Rain,273
2012-11-28,50,46,41,46,43,39,93,88,79,30.09,29.98,29.92,6,5,4,22,13,,0.67,6,Rain,267
2012-11-29,63,52,42,45,39,32,87,74,52,30.10,30.04,30.01,6,6,4,18,12,,0.12,5,Rain,249
2012-11-30,53,48,42,42,38,36,81,72,50,30.08,29.85,29.74,6,5,2,30,16,43,0.67,6,Rain,242